| time (UTC) | temp F | wind direction | speed MPH | gust MPH | rain 1hr in | rain 24hr in | rain mn in | humidity % | barometer mb |
| 20260504081507 | 45 | 352 | 0.0 | 0.0 | 0.00 | 0.00 | 0.00 | 93 | 1013.8 |
| 20260504050020 | 48 | 352 | 0.0 | 0.0 | 0.00 | 0.00 | 0.00 | 90 | 1015.1 |
| 20260504044518 | 49 | 352 | 0.0 | 0.0 | 0.00 | 0.00 | 0.00 | 91 | 1015.0 |
| 20260504043023 | 49 | 352 | 0.0 | 0.0 | 0.00 | 0.00 | 0.00 | 90 | 1015.3 |
| 20260504041512 | 49 | 352 | 0.0 | 0.0 | 0.00 | 0.00 | 0.00 | 90 | 1015.4 |
| 20260504040018 | 50 | 352 | 0.0 | 0.0 | 0.00 | 0.00 | 0.00 | 89 | 1015.5 |
| 20260504034521 | 50 | 352 | 0.0 | 0.0 | 0.00 | 0.00 | 0.00 | 89 | 1015.5 |
| 20260504033020 | 51 | 352 | 0.0 | 0.0 | 0.00 | 0.00 | 0.00 | 88 | 1015.4 |
| 20260504031526 | 51 | 352 | 0.0 | 0.0 | 0.00 | 0.00 | 0.00 | 87 | 1015.5 |
| 20260504030011 | 51 | 352 | 0.0 | 0.0 | 0.00 | 0.00 | 0.00 | 86 | 1015.5 |
| 20260504024518 | 52 | 352 | 0.0 | 0.0 | 0.00 | 0.00 | 0.00 | 85 | 1015.4 |
| 20260504023020 | 53 | 352 | 0.0 | 0.0 | 0.00 | 0.00 | 0.00 | 84 | 1015.3 |
| 20260504021504 | 53 | 352 | 0.0 | 0.0 | 0.00 | 0.00 | 0.00 | 84 | 1015.2 |
| 20260504020008 | 54 | 352 | 0.0 | 0.0 | 0.00 | 0.00 | 0.00 | 82 | 1015.0 |
| 20260504014513 | 55 | 352 | 0.0 | 0.0 | 0.00 | 0.00 | 0.00 | 81 | 1014.9 |
| 20260504013024 | 56 | 352 | 0.0 | 0.0 | 0.00 | 0.00 | 0.00 | 79 | 1014.6 |
| 20260504011520 | 57 | 352 | 0.0 | 0.0 | 0.00 | 0.00 | 0.00 | 75 | 1014.7 |
| 20260504010003 | 58 | 352 | 0.0 | 0.0 | 0.00 | 0.00 | 0.00 | 72 | 1014.6 |
| 20260504004510 | 60 | 352 | 0.0 | 0.0 | 0.00 | 0.00 | 0.00 | 69 | 1014.5 |
| 20260504003012 | 61 | 352 | 0.0 | 0.0 | 0.00 | 0.00 | 0.00 | 68 | 1014.4 |
| 20260504001518 | 62 | 352 | 0.0 | 0.0 | 0.00 | 0.00 | 0.00 | 63 | 1014.4 |
| 20260504000049 | 63 | 352 | 0.0 | 0.0 | 0.00 | 0.00 | 0.00 | 58 | 1014.5 |
| 20260503234526 | 64 | 352 | 0.0 | 0.0 | 0.00 | 0.00 | 0.00 | 55 | 1014.5 |
| 20260503233011 | 66 | 352 | 0.0 | 0.0 | 0.00 | 0.00 | 0.00 | 53 | 1014.6 |
| 20260503231516 | 66 | 352 | 0.0 | 0.0 | 0.00 | 0.00 | 0.00 | 51 | 1014.5 |
| 20260503230020 | 67 | 352 | 0.0 | 1.0 | 0.00 | 0.00 | 0.00 | 45 | 1014.5 |
| 20260503224522 | 69 | 352 | 0.0 | 1.0 | 0.00 | 0.00 | 0.00 | 49 | 1014.5 |
| 20260503223035 | 69 | 352 | 0.0 | 2.0 | 0.00 | 0.00 | 0.00 | 42 | 1014.5 |
| 20260503221509 | 70 | 352 | 0.0 | 1.0 | 0.00 | 0.00 | 0.00 | 40 | 1014.7 |
| 20260503220016 | 70 | 352 | 0.0 | 3.0 | 0.00 | 0.00 | 0.00 | 39 | 1014.8 |
| 20260503214524 | 71 | 352 | 0.0 | 2.0 | 0.00 | 0.00 | 0.00 | 39 | 1014.9 |
| 20260503213024 | 71 | 352 | 1.0 | 4.0 | 0.00 | 0.00 | 0.00 | 41 | 1015.1 |
| 20260503211523 | 72 | 352 | 0.0 | 4.0 | 0.00 | 0.00 | 0.00 | 37 | 1015.4 |
| 20260503210012 | 73 | 352 | 1.0 | 4.0 | 0.00 | 0.00 | 0.00 | 35 | 1015.6 |
| 20260503204518 | 74 | 352 | 0.0 | 4.0 | 0.00 | 0.00 | 0.00 | 38 | 1015.6 |
| 20260503203029 | 75 | 352 | 0.0 | 4.0 | 0.00 | 0.00 | 0.00 | 34 | 1015.8 |
| 20260503201532 | 76 | 352 | 1.0 | 4.0 | 0.00 | 0.00 | 0.00 | 36 | 1015.9 |
| 20260503200026 | 76 | 352 | 1.0 | 3.0 | 0.00 | 0.00 | 0.00 | 31 | 1016.6 |
| 20260503194515 | 77 | 352 | 1.0 | 3.0 | 0.00 | 0.00 | 0.00 | 37 | 1016.8 |
| 20260503193020 | 75 | 352 | 1.0 | 5.0 | 0.00 | 0.00 | 0.00 | 35 | 1017.1 |
| 20260503191521 | 75 | 352 | 1.0 | 3.0 | 0.00 | 0.00 | 0.00 | 33 | 1017.2 |
| 20260503190025 | 74 | 352 | 1.0 | 5.0 | 0.00 | 0.00 | 0.00 | 38 | 1017.4 |
| 20260503184526 | 74 | 352 | 1.0 | 4.0 | 0.00 | 0.00 | 0.00 | 38 | 1017.7 |
| 20260503183015 | 73 | 352 | 1.0 | 6.0 | 0.00 | 0.00 | 0.00 | 36 | 1017.9 |
| 20260503181523 | 74 | 352 | 1.0 | 4.0 | 0.00 | 0.00 | 0.00 | 39 | 1018.1 |
| 20260503180028 | 73 | 352 | 1.0 | 3.0 | 0.00 | 0.00 | 0.00 | 43 | 1018.4 |
| 20260503174526 | 73 | 352 | 0.0 | 3.0 | 0.00 | 0.00 | 0.00 | 46 | 1018.6 |
| 20260503173040 | 71 | 352 | 1.0 | 3.0 | 0.00 | 0.00 | 0.00 | 36 | 1018.8 |
| 20260503171514 | 70 | 352 | 1.0 | 5.0 | 0.00 | 0.00 | 0.00 | 37 | 1018.9 |